GW4718 Weather Reports


time (UTC)temp
F
wind
direction
speed
knots
gust
knots
rain 1hr
in
rain 24hr
in
rain mn
in
humidity
%
barometer
mb
20260902100906 67 231 0.9 0.9 0.00 0.00 0.00 99 1023.9
20260902100359 68 162 0.0 0.0 0.00 0.00 0.00 99 1023.7
20260902095854 68 229 0.9 1.7 0.00 0.00 0.00 99 1023.9
20260902095348 67 273 0.0 0.9 0.00 0.00 0.00 99 1023.6
20260902094843 68 210 0.0 0.9 0.00 0.00 0.00 99 1023.7
20260902094340 68 251 0.9 1.7 0.00 0.00 0.00 99 1023.9
20260902093838 68 244 0.9 1.7 0.00 0.00 0.00 99 1023.7
20260902093334 68 273 0.9 1.7 0.00 0.00 0.00 98 1023.9
20260902092832 68 253 0.9 2.6 0.00 0.00 0.00 98 1023.9
20260902092328 68 255 0.9 2.6 0.00 0.00 0.00 98 1023.7
20260902091822 68 238 0.9 2.6 0.00 0.00 0.00 98 1023.9
20260902091318 69 176 3.5 5.2 0.00 0.00 0.00 97 1023.7
20260902090815 69 158 0.0 0.0 0.00 0.00 0.00 98 1023.9
20260902090314 69 204 0.0 0.9 0.00 0.00 0.00 97 1024.1
20260902085813 69 211 1.7 2.6 0.00 0.00 0.00 97 1023.9
20260902085308 69 173 1.7 2.6 0.00 0.00 0.00 98 1024.0
20260902084804 68 126 0.0 0.0 0.00 0.00 0.00 99 1024.0
20260902084300 68 105 0.0 1.7 0.00 0.00 0.00 99 1023.6
20260902083755 68 65 0.9 1.7 0.00 0.00 0.00 99 1023.7
20260902083250 68 7 0.0 0.0 0.00 0.00 0.00 99 1023.9
20260902082745 68 50 1.7 2.6 0.00 0.00 0.00 99 1023.6
20260902082242 68 32 0.9 1.7 0.00 0.00 0.00 98 1023.6
20260902081737 69 157 0.9 1.7 0.00 0.00 0.00 98 1023.7
20260902081232 69 264 1.7 1.7 0.00 0.00 0.00 98 1023.6
20260902080727 69 197 0.9 0.9 0.00 0.00 0.00 98 1023.9
20260902080225 68 203 0.0 1.7 0.00 0.00 0.00 98 1023.7
20260902075723 69 165 0.0 0.0 0.00 0.00 0.00 98 1023.9
20260902075220 69 37 0.0 0.0 0.00 0.00 0.00 98 1023.6
20260902074719 69 58 1.7 2.6 0.00 0.00 0.00 98 1023.6
20260902074215 69 60 0.9 1.7 0.00 0.00 0.00 98 1023.6
20260902073710 69 250 1.7 2.6 0.00 0.00 0.00 98 1023.6
20260902073206 69 128 0.0 0.0 0.00 0.00 0.00 98 1023.4
20260902072702 69 70 0.0 0.0 0.00 0.00 0.00 98 1023.6
20260902072158 69 49 0.9 1.7 0.00 0.00 0.00 98 1023.6
20260902071654 69 114 0.0 0.9 0.00 0.00 0.00 98 1023.6
20260902071149 69 59 1.7 2.6 0.00 0.00 0.00 98 1023.5
20260902070645 69 83 0.0 0.0 0.00 0.00 0.00 97 1023.5
20260902070144 70 69 0.9 1.7 0.00 0.00 0.00 97 1023.4
20260902065643 69 226 1.7 2.6 0.00 0.00 0.00 97 1023.4
20260902065139 69 100 0.9 1.7 0.00 0.00 0.00 97 1023.4
20260902064634 70 34 0.0 0.0 0.00 0.00 0.00 97 1023.4
20260902064130 70 90 0.0 0.0 0.00 0.00 0.00 97 1023.2
20260902063625 70 87 0.0 0.0 0.00 0.00 0.00 96 1023.4
20260902063120 70 302 0.0 0.0 0.00 0.00 0.00 97 1023.5
20260902062619 70 144 0.9 1.7 0.00 0.00 0.00 96 1023.5
20260902062115 70 250 1.7 1.7 0.00 0.00 0.00 97 1023.4
20260902061609 70 104 0.0 1.7 0.00 0.00 0.00 96 1023.3
20260902061104 70 349 1.7 1.7 0.00 0.00 0.00 96 1023.4
20260902060600 70 166 0.9 2.6 0.00 0.00 0.00 96 1023.5
20260902060057 70 228 0.9 2.6 0.00 0.00 0.00 96 1023.4
20260902055552 70 249 1.7 1.7 0.00 0.00 0.00 96 1023.6
20260902055047 70 102 0.9 0.9 0.00 0.00 0.00 96 1023.4
20260902054542 70 164 0.0 0.9 0.00 0.00 0.00 97 1023.5
20260902054038 70 232 0.0 1.7 0.00 0.00 0.00 97 1023.6
20260902053532 69 224 0.9 0.9 0.00 0.00 0.00 97 1023.4
20260902053027 69 200 0.9 2.6 0.00 0.00 0.00 97 1023.3
20260902052522 69 243 1.7 1.7 0.00 0.00 0.00 97 1023.2
20260902052018 69 205 0.9 0.9 0.00 0.00 0.00 97 1023.2
20260902051517 69 91 1.7 2.6 0.00 0.00 0.00 97 1023.2
20260902051016 70 285 0.0 0.0 0.00 0.00 0.00 97 1023.0
20260902050510 70 273 0.0 0.9 0.00 0.00 0.00 96 1023.0
20260902050008 70 235 1.7 2.6 0.00 0.00 0.00 96 1023.0
20260902045500 70 159 0.0 0.9 0.00 0.00 0.00 97 1023.2
20260902044957 69 120 0.0 0.0 0.00 0.00 0.00 98 1023.3
20260902044452 69 251 0.0 0.0 0.00 0.00 0.00 97 1023.0
20260902043947 70 129 0.0 0.9 0.00 0.00 0.00 97 1023.0
20260902043442 70 176 0.0 0.9 0.00 0.00 0.00 97 1023.0
20260902042937 70 221 0.0 0.9 0.00 0.00 0.00 97 1022.9
20260902042437 70 182 0.9 0.9 0.00 0.00 0.00 96 1022.9
20260902041932 70 240 0.0 1.7 0.00 0.00 0.00 95 1023.0
20260902041427 70 250 0.9 2.6 0.00 0.00 0.00 95 1022.8
20260902040926 70 198 0.0 2.6 0.00 0.00 0.00 97 1022.8
20260902040420 70 177 0.9 0.9 0.00 0.00 0.00 96 1022.9
20260902035920 70 219 0.0 0.0 0.00 0.00 0.00 95 1022.6
20260902035415 71 239 0.9 1.7 0.00 0.00 0.00 95 1022.7
20260902034914 71 225 0.9 1.7 0.00 0.00 0.00 95 1022.5
20260902034410 71 260 1.7 3.5 0.00 0.00 0.00 95 1022.4
20260902033908 70 227 0.0 0.9 0.00 0.00 0.00 96 1022.5
20260902033402 71 187 0.9 0.9 0.00 0.00 0.00 95 1022.4
20260902032901 72 253 1.7 3.5 0.00 0.00 0.00 94 1022.4
20260902032357 72 187 0.9 3.5 0.00 0.00 0.00 92 1022.6
20260902031857 71 192 0.9 1.7 0.00 0.00 0.00 94 1022.6
20260902031353 72 266 1.7 2.6 0.00 0.00 0.00 93 1022.5
20260902030843 72 197 0.9 0.9 0.00 0.00 0.00 92 1022.5
20260902030337 72 251 0.0 1.7 0.00 0.00 0.00 93 1022.6
20260902025836 72 226 3.5 3.5 0.00 0.00 0.00 93 1022.5
20260902025332 72 202 3.5 5.2 0.00 0.00 0.00 92 1022.6
20260902024832 73 242 2.6 3.5 0.00 0.00 0.00 92 1022.5
20260902024327 71 236 0.0 0.9 0.00 0.00 0.00 94 1022.8
20260902023822 71 209 0.9 1.7 0.00 0.00 0.00 95 1022.6
20260902023319 71 60 1.7 2.6 0.00 0.00 0.00 95 1022.8
20260902022817 71 288 0.9 2.6 0.00 0.00 0.00 95 1022.9
20260902022313 71 93 0.0 2.6 0.00 0.00 0.00 95 1022.7
20260902021809 71 252 2.6 3.5 0.00 0.00 0.00 95 1022.9
20260902021309 71 184 0.0 0.9 0.00 0.00 0.00 95 1022.7
20260902020804 71 198 0.0 0.9 0.00 0.00 0.00 95 1022.7
20260902020300 71 222 0.0 0.0 0.00 0.00 0.00 95 1022.8
20260902015755 71 130 0.0 0.9 0.00 0.00 0.00 95 1022.8
20260902015252 70 128 0.9 1.7 0.00 0.00 0.00 96 1022.8
20260902014747 71 247 0.0 0.9 0.00 0.00 0.00 95 1022.7
20260902014244 71 249 0.9 1.7 0.00 0.00 0.00 95 1022.8
20260902013742 71 57 0.0 0.0 0.00 0.00 0.00 95 1022.7
20260902013238 71 359 0.0 1.7 0.00 0.00 0.00 94 1022.6
20260902012733 72 238 0.0 0.0 0.00 0.00 0.00 93 1022.6
20260902012229 72 203 0.9 2.6 0.00 0.00 0.00 92 1022.6
20260902011724 73 245 0.9 0.9 0.00 0.00 0.00 92 1022.5
20260902011223 72 141 0.0 1.7 0.00 0.00 0.00 93 1022.3
20260902010717 73 228 1.7 1.7 0.00 0.00 0.00 91 1022.5
20260902010213 73 100 1.7 2.6 0.00 0.00 0.00 91 1022.3
20260902005711 73 161 0.9 1.7 0.00 0.00 0.00 91 1022.3
20260902005207 74 164 0.9 2.6 0.00 0.00 0.00 89 1022.1
20260902004707 73 151 0.0 1.7 0.00 0.00 0.00 91 1022.2
20260902004202 72 120 1.7 1.7 0.00 0.00 0.00 91 1022.1
20260902003658 72 166 0.9 1.7 0.00 0.00 0.00 93 1022.2
20260902003153 71 102 0.0 1.7 0.00 0.00 0.00 94 1021.9
20260902002648 72 239 0.9 0.9 0.00 0.00 0.00 94 1021.9
20260902002142 72 79 0.0 1.7 0.00 0.00 0.00 93 1021.9
20260902001637 72 71 0.0 0.0 0.00 0.00 0.00 94 1021.9
20260902001132 72 99 0.9 1.7 0.00 0.00 0.00 94 1021.7
20260902000627 72 42 0.9 1.7 0.00 0.00 0.00 92 1021.7
20260902000122 73 215 0.0 0.0 0.00 0.00 0.00 90 1021.8
20260901235622 74 148 0.9 1.7 0.00 0.00 0.00 90 1021.7
20260901235118 74 138 0.9 1.7 0.00 0.00 0.00 91 1021.7
20260901234616 75 107 1.7 1.7 0.00 0.00 0.00 86 1021.7
20260901234112 74 86 1.7 1.7 0.00 0.00 0.00 88 1021.8
20260901233607 74 167 0.0 0.0 0.00 0.00 0.00 89 1021.7
20260901233103 75 159 0.0 0.0 0.00 0.00 0.00 87 1021.6
20260901232557 75 169 0.9 1.7 0.00 0.00 0.00 87 1021.8
20260901232052 75 68 0.0 0.9 0.00 0.00 0.00 86 1021.7
20260901231549 76 123 0.0 0.9 0.00 0.00 0.00 86 1021.6
20260901231045 77 256 0.0 0.9 0.00 0.00 0.00 84 1021.6
20260901230540 78 93 0.9 0.9 0.00 0.00 0.00 83 1021.7
20260901230035 79 179 0.9 0.9 0.00 0.00 0.00 79 1021.8
20260901225530 80 86 1.7 7.0 0.00 0.00 0.00 71 1021.7
20260901225029 80 179 1.7 2.6 0.00 0.00 0.00 77 1021.8
20260901224525 81 225 0.0 1.7 0.00 0.00 0.00 75 1021.7
20260901224022 80 87 0.0 0.9 0.00 0.00 0.00 76 1021.8
20260901223516 80 141 0.0 0.9 0.00 0.00 0.00 78 1021.7
20260901223011 80 150 0.0 1.7 0.00 0.00 0.00 70 1021.7
20260901222508 82 160 0.0 0.0 0.00 0.00 0.00 74 1021.5
20260901222003 83 195 0.9 1.7 0.00 0.00 0.00 72 1021.6
20260901221459 84 99 3.5 3.5 0.00 0.00 0.00 63 1021.7
20260901220954 85 217 0.9 1.7 0.00 0.00 0.00 64 1021.5
20260901220453 85 248 2.6 5.2 0.00 0.00 0.00 65 1021.5
20260901215952 84 159 0.0 1.7 0.00 0.00 0.00 68 1021.7
20260901215450 85 216 2.6 2.6 0.00 0.00 0.00 63 1021.7
20260901214950 85 144 1.7 2.6 0.00 0.00 0.00 65 1021.8
20260901214448 85 148 2.6 3.5 0.00 0.00 0.00 61 1021.8
20260901213943 85 88 1.7 5.2 0.00 0.00 0.00 66 1021.7
20260901213438 85 167 1.7 2.6 0.00 0.00 0.00 70 1021.8
20260901212937 86 216 0.0 1.7 0.00 0.00 0.00 64 1021.7
20260901212433 86 242 0.0 2.6 0.00 0.00 0.00 61 1021.7
20260901211930 86 228 1.7 2.6 0.00 0.00 0.00 60 1021.6
20260901211425 87 347 1.7 3.5 0.00 0.00 0.00 61 1021.6
20260901210920 85 184 0.0 1.7 0.00 0.00 0.00 67 1021.9
20260901210417 83 88 0.9 0.9 0.00 0.00 0.00 73 1021.6
20260901205913 83 85 2.6 3.5 0.00 0.00 0.00 66 1021.7
20260901205412 83 37 2.6 5.2 0.00 0.00 0.00 69 1021.6
20260901204908 84 59 0.0 0.9 0.00 0.00 0.00 66 1021.8
20260901204404 85 353 1.7 3.5 0.00 0.00 0.00 65 1021.7
20260901203903 86 16 1.7 2.6 0.00 0.00 0.00 63 1021.7
20260901203358 85 28 0.9 0.9 0.00 0.00 0.00 65 1021.7
20260901202853 85 71 0.9 5.2 0.00 0.00 0.00 64 1021.7
20260901202348 86 10 1.7 7.0 0.00 0.00 0.00 64 1021.6
20260901201844 85 352 1.7 1.7 0.00 0.00 0.00 63 1021.7
20260901201344 84 35 2.6 3.5 0.00 0.00 0.00 66 1021.7
20260901200838 84 71 1.7 1.7 0.00 0.00 0.00 66 1021.9
20260901200333 83 173 3.5 5.2 0.00 0.00 0.00 67 1022.1
20260901195832 83 100 1.7 3.5 0.00 0.00 0.00 74 1022.3
20260901195330 83 50 0.0 0.0 0.00 0.00 0.00 73 1022.3
20260901194826 82 69 0.9 0.9 0.00 0.00 0.00 74 1022.1
20260901194320 82 14 0.0 0.9 0.00 0.00 0.00 70 1022.2
20260901193817 82 119 2.6 3.5 0.00 0.00 0.00 73 1022.4
20260901193315 83 90 0.9 1.7 0.00 0.00 0.00 70 1022.5
20260901192810 83 78 3.5 3.5 0.00 0.00 0.00 68 1022.5
20260901192306 84 80 0.9 2.6 0.00 0.00 0.00 69 1022.8
20260901191801 84 125 2.6 6.1 0.00 0.00 0.00 63 1022.9
20260901191252 84 35 1.7 3.5 0.00 0.00 0.00 64 1022.9
20260901190747 85 282 0.9 2.6 0.00 0.00 0.00 63 1022.9
20260901190241 85 286 0.9 2.6 0.00 0.00 0.00 63 1022.9
20260901185740 84 10 0.0 1.7 0.00 0.00 0.00 63 1023.1
20260901185238 85 31 5.2 6.1 0.00 0.00 0.00 63 1023.1
20260901184734 85 285 0.0 2.6 0.00 0.00 0.00 61 1023.1
20260901184230 85 287 0.9 7.0 0.00 0.00 0.00 59 1023.1
20260901183725 85 297 4.3 5.2 0.00 0.00 0.00 61 1023.4
20260901183225 85 348 1.7 3.5 0.00 0.00 0.00 62 1023.4
20260901182721 85 147 2.6 7.8 0.00 0.00 0.00 59 1023.3
20260901182214 85 120 3.5 9.6 0.00 0.00 0.00 62 1023.5
20260901181709 86 254 1.7 6.1 0.00 0.00 0.00 62 1023.6
20260901181203 85 295 2.6 3.5 0.00 0.00 0.00 61 1023.6
20260901180657 86 72 2.6 5.2 0.00 0.00 0.00 56 1023.2
20260901180151 87 276 1.7 2.6 0.00 0.00 0.00 59 1023.5
20260901175650 85 46 0.0 0.9 0.00 0.00 0.00 63 1023.5
20260901175150 85 283 0.0 0.0 0.00 0.00 0.00 61 1023.5
20260901174646 85 351 0.9 1.7 0.00 0.00 0.00 62 1023.5
20260901174142 85 290 3.5 5.2 0.00 0.00 0.00 65 1023.7
20260901173637 86 225 0.9 1.7 0.00 0.00 0.00 61 1023.6
20260901173132 87 287 0.9 2.6 0.00 0.00 0.00 57 1023.2
20260901172628 86 244 2.6 5.2 0.00 0.00 0.00 61 1023.4
20260901172126 86 276 2.6 3.5 0.00 0.00 0.00 60 1023.2
20260901171625 87 302 1.7 3.5 0.00 0.00 0.00 58 1023.4
20260901171120 86 3 0.0 1.7 0.00 0.00 0.00 61 1023.2
20260901170619 86 209 5.2 6.1 0.00 0.00 0.00 63 1023.2
20260901170114 86 256 2.6 7.8 0.00 0.00 0.00 64 1023.2
20260901165613 86 267 0.9 3.5 0.00 0.00 0.00 62 1023.1
20260901165109 85 22 4.3 5.2 0.00 0.00 0.00 64 1023.0
20260901164604 85 31 1.7 2.6 0.00 0.00 0.00 66 1023.0
20260901164059 84 78 0.0 5.2 0.00 0.00 0.00 65 1023.1
20260901163554 83 356 0.0 6.1 0.00 0.00 0.00 66 1023.1
20260901163054 83 55 5.2 7.0 0.00 0.00 0.00 66 1022.8
20260901162549 83 70 1.7 1.7 0.00 0.00 0.00 71 1023.0
20260901162049 82 88 1.7 2.6 0.00 0.00 0.00 68 1023.1
20260901161547 83 27 2.6 3.5 0.00 0.00 0.00 68 1023.1
20260901161047 83 93 2.6 5.2 0.00 0.00 0.00 69 1023.1
20260901160543 83 42 3.5 3.5 0.00 0.00 0.00 70 1023.0
20260901160033 83 281 2.6 3.5 0.00 0.00 0.00 66 1023.1
20260901155531 83 98 3.5 5.2 0.00 0.00 0.00 70 1023.0
20260901155027 83 145 0.9 1.7 0.00 0.00 0.00 76 1023.1
20260901154527 83 77 0.0 0.9 0.00 0.00 0.00 68 1023.1
20260901154022 82 81 2.6 3.5 0.00 0.00 0.00 74 1023.2
20260901153516 82 116 5.2 7.0 0.00 0.00 0.00 70 1023.1
20260901153010 82 100 0.9 0.9 0.00 0.00 0.00 69 1023.2
20260901152505 82 62 0.9 3.5 0.00 0.00 0.00 72 1023.5
20260901152004 82 50 5.2 6.1 0.00 0.00 0.00 74 1023.4
20260901151500 82 26 1.7 2.6 0.00 0.00 0.00 74 1023.2
20260901150959 82 63 1.7 2.6 0.00 0.00 0.00 74 1023.3
20260901150457 83 38 0.0 2.6 0.00 0.00 0.00 71 1023.4
20260901145954 82 152 0.0 1.7 0.00 0.00 0.00 71 1023.4
20260901145449 82 67 1.7 5.2 0.00 0.00 0.00 73 1023.5
20260901144949 82 109 1.7 1.7 0.00 0.00 0.00 75 1023.4
20260901144444 81 352 0.9 0.9 0.00 0.00 0.00 75 1023.6
20260901143940 82 80 0.9 2.6 0.00 0.00 0.00 75 1023.5
20260901143436 81 17 0.0 5.2 0.00 0.00 0.00 75 1023.5
20260901142932 82 41 0.9 1.7 0.00 0.00 0.00 74 1023.7
20260901142432 82 48 2.6 3.5 0.00 0.00 0.00 77 1023.7
20260901141926 81 23 0.9 1.7 0.00 0.00 0.00 78 1023.7
20260901141421 80 326 0.0 3.5 0.00 0.00 0.00 80 1023.9
20260901140916 78 74 3.5 3.5 0.00 0.00 0.00 86 1023.7
20260901140414 77 77 3.5 5.2 0.00 0.00 0.00 81 1023.9
20260901135908 77 52 1.7 2.6 0.00 0.00 0.00 86 1023.9
20260901135404 78 283 1.7 2.6 0.00 0.00 0.00 87 1024.0
20260901134900 75 84 3.5 3.5 0.00 0.00 0.00 91 1024.0
20260901134355 75 155 0.0 0.9 0.00 0.00 0.00 89 1024.0
20260901133855 75 142 0.0 1.7 0.00 0.00 0.00 88 1024.1
20260901133354 75 77 0.9 1.7 0.00 0.00 0.00 89 1024.0
20260901132852 74 245 0.0 0.9 0.00 0.00 0.00 90 1023.9
20260901132348 73 114 2.6 3.5 0.00 0.00 0.00 91 1023.9
20260901131846 73 57 3.5 3.5 0.00 0.00 0.00 90 1023.9
20260901131346 73 287 0.9 1.7 0.00 0.00 0.00 91 1023.9
20260901130842 73 200 0.0 0.0 0.00 0.00 0.00 91 1023.7
20260901130337 73 357 0.0 0.9 0.00 0.00 0.00 92 1024.0
20260901125834 73 54 1.7 1.7 0.00 0.00 0.00 92 1024.0
20260901125334 72 142 0.0 1.7 0.00 0.00 0.00 92 1023.9
20260901124829 72 180 4.3 7.0 0.00 0.00 0.00 91 1023.9
20260901124324 72 186 1.7 2.6 0.00 0.00 0.00 92 1024.1
20260901123823 71 202 3.5 5.2 0.00 0.00 0.00 92 1024.0
20260901123319 71 237 0.0 2.6 0.00 0.00 0.00 92 1024.0
20260901122817 71 218 1.7 3.5 0.00 0.00 0.00 93 1024.1
20260901122312 71 209 1.7 5.2 0.00 0.00 0.00 93 1024.1
20260901121811 70 259 0.9 1.7 0.00 0.00 0.00 94 1023.9
20260901121306 70 208 0.0 2.6 0.00 0.00 0.00 94 1024.1
20260901120801 69 216 0.9 1.7 0.00 0.00 0.00 95 1023.9
20260901120301 69 72 0.0 0.9 0.00 0.00 0.00 95 1023.9
20260901115756 69 163 1.7 2.6 0.00 0.00 0.00 95 1024.0
20260901115252 69 242 2.6 3.5 0.00 0.00 0.00 95 1024.0
20260901114749 69 265 0.9 1.7 0.00 0.00 0.00 95 1024.0
20260901114244 69 192 0.9 6.1 0.00 0.00 0.00 96 1023.7
20260901113743 68 234 4.3 5.2 0.00 0.00 0.00 97 1023.7
20260901113238 68 230 1.7 5.2 0.00 0.00 0.00 97 1023.6
20260901112737 68 125 0.0 0.9 0.00 0.00 0.00 98 1023.6
20260901112231 68 55 0.0 0.9 0.00 0.00 0.00 99 1023.9
20260901111726 67 68 0.0 0.0 0.00 0.00 0.00 99 1023.7
20260901111226 67 78 0.0 0.0 0.00 0.00 0.00 99 1023.6
20260901110719 67 34 0.0 0.9 0.00 0.00 0.00 99 1023.5
20260901110215 66 88 0.9 1.7 0.00 0.00 0.00 99 1023.5
20260901105712 66 90 0.0 1.7 0.00 0.00 0.00 99 1023.6
20260901105211 66 227 0.0 0.0 0.00 0.00 0.00 99 1023.5
20260901104707 66 53 1.7 2.6 0.00 0.00 0.00 99 1023.6
20260901104202 66 66 0.0 0.9 0.00 0.00 0.00 99 1023.6
20260901103701 66 70 0.0 0.9 0.00 0.00 0.00 99 1023.5
20260901103157 66 75 0.0 0.0 0.00 0.00 0.00 99 1023.2
20260901102652 66 46 0.9 0.9 0.00 0.00 0.00 99 1023.4
20260901102151 66 352 0.0 0.9 0.00 0.00 0.00 99 1023.3
20260901101648 66 130 0.0 0.9 0.00 0.00 0.00 99 1023.3